When you browse on this site, cookies collect data to enhance your experience and personalize the content and advertising you see.
Visit our Privacy Policy to learn more. By continuing to use the site, you agree to this use of cookies and data.
  • în România
  • Lista ţărilor
  • Pe 7 zile
  • Temperatura apei
  • Hartă satelitară
  • Meteo pe hartă
  • Widget-uri
  • user-avatar
    Intrare

    Meteo pe oră la Christchurch

    Astăzi, 26 Mai, Duminică

    Timp Temperatura Precipitaţii Vânt Presiune Umiditate
    00:00 +10°C° 0 mm 3 m/s 760 mmHg 72%
    01:00 +10°C° 0 mm 3 m/s 760 mmHg 72%
    02:00 +10°C° 0 mm 2 m/s 760 mmHg 72%
    03:00 +10°C° 0 mm 2 m/s 760 mmHg 72%
    04:00 +10°C° 0 mm 2 m/s 760 mmHg 73%
    05:00 +10°C° 0 mm 2 m/s 760 mmHg 73%
    06:00 +11°C° 0 mm 1 m/s 760 mmHg 75%
    07:00 +12°C° 0 mm 1 m/s 760 mmHg 73%
    08:00 +12°C° 0 mm 1 m/s 760 mmHg 71%
    09:00 +13°C° 0 mm 1 m/s 760 mmHg 70%
    10:00 +15°C° 0 mm 1 m/s 760 mmHg 65%
    11:00 +18°C° 0 mm 1 m/s 760 mmHg 61%
    12:00 +19°C° 0 mm 2 m/s 760 mmHg 56%
    13:00 +19°C° 0 mm 2 m/s 760 mmHg 56%
    14:00 +20°C° 0 mm 2 m/s 759 mmHg 57%
    15:00 +20°C° 0 mm 2 m/s 759 mmHg 57%
    16:00 +19°C° 0 mm 2 m/s 759 mmHg 62%
    17:00 +17°C° 0 mm 2 m/s 759 mmHg 68%
    18:00 +14°C° 0 mm 3 m/s 758 mmHg 73%
    19:00 +13°C° 0 mm 3 m/s 758 mmHg 75%
    20:00 +13°C° 0 mm 3 m/s 758 mmHg 76%
    21:00 +12°C° 0 mm 3 m/s 758 mmHg 78%
    22:00 +12°C° 0 mm 3 m/s 758 mmHg 78%
    23:00 +11°C° 0 mm 3 m/s 758 mmHg 78%

    Mâine, 27 Mai, Luni

    Timp Temperatura Precipitaţii Vânt Presiune Umiditate
    00:00 +12°C° 0 mm 2 m/s 758 mmHg 78%
    01:00 +11°C° 0 mm 3 m/s 758 mmHg 78%
    02:00 +11°C° 0 mm 4 m/s 757 mmHg 77%
    03:00 +11°C° 0 mm 4 m/s 757 mmHg 77%
    04:00 +11°C° 0 mm 4 m/s 757 mmHg 74%
    05:00 +12°C° 0 mm 4 m/s 756 mmHg 71%
    06:00 +12°C° 0 mm 4 m/s 756 mmHg 68%
    07:00 +13°C° 0 mm 5 m/s 756 mmHg 68%
    08:00 +13°C° 0 mm 5 m/s 756 mmHg 67%
    09:00 +14°C° 0 mm 6 m/s 756 mmHg 66%
    10:00 +15°C° 0 mm 6 m/s 755 mmHg 64%
    11:00 +16°C° 0 mm 6 m/s 755 mmHg 62%
    12:00 +17°C° 0 mm 6 m/s 755 mmHg 61%
    13:00 +17°C° 0 mm 6 m/s 754 mmHg 60%
    14:00 +17°C° 0 mm 6 m/s 753 mmHg 59%
    15:00 +17°C° 0 mm 6 m/s 753 mmHg 58%
    16:00 +17°C° 0 mm 7 m/s 753 mmHg 58%
    17:00 +16°C° 0 mm 7 m/s 753 mmHg 57%
    18:00 +16°C° 0 mm 7 m/s 753 mmHg 57%
    19:00 +16°C° 0 mm 7 m/s 753 mmHg 58%
    20:00 +16°C° 0 mm 7 m/s 753 mmHg 59%
    21:00 +16°C° 0 mm 6 m/s 753 mmHg 60%
    22:00 +16°C° 0 mm 6 m/s 753 mmHg 61%
    23:00 +16°C° 0 mm 6 m/s 753 mmHg 63%

    Poimâine, 28 Mai, Marţi

    Timp Temperatura Precipitaţii Vânt Presiune Umiditate
    00:00 +15°C° 0 mm 5 m/s 753 mmHg 64%
    01:00 +15°C° 0 mm 5 m/s 752 mmHg 64%
    02:00 +15°C° 0 mm 5 m/s 752 mmHg 65%
    03:00 +16°C° 0 mm 5 m/s 752 mmHg 65%
    04:00 +15°C° 0.1 mm 5 m/s 751 mmHg 66%
    05:00 +15°C° 0.1 mm 5 m/s 751 mmHg 67%
    06:00 +15°C° 0.1 mm 5 m/s 750 mmHg 68%
    07:00 +15°C° 0 mm 5 m/s 750 mmHg 68%
    08:00 +15°C° 0 mm 6 m/s 750 mmHg 68%
    09:00 +15°C° 0 mm 6 m/s 749 mmHg 67%
    10:00 +16°C° 0 mm 6 m/s 749 mmHg 64%
    11:00 +17°C° 0 mm 6 m/s 748 mmHg 61%
    12:00 +18°C° 0 mm 7 m/s 747 mmHg 58%
    13:00 +18°C° 0 mm 7 m/s 746 mmHg 59%
    14:00 +18°C° 0 mm 7 m/s 745 mmHg 61%
    15:00 +18°C° 0 mm 7 m/s 744 mmHg 63%
    16:00 +17°C° 0 mm 7 m/s 743 mmHg 67%
    17:00 +16°C° 0 mm 8 m/s 742 mmHg 71%
    18:00 +15°C° 0 mm 8 m/s 741 mmHg 76%
    19:00 +15°C° 0 mm 8 m/s 740 mmHg 78%
    20:00 +14°C° 0 mm 7 m/s 740 mmHg 79%
    21:00 +14°C° 0 mm 7 m/s 739 mmHg 81%
    22:00 +14°C° 0 mm 6 m/s 739 mmHg 76%
    23:00 +14°C° 0 mm 5 m/s 739 mmHg 71%

    29 Mai, Miercuri

    Timp Temperatura Precipitaţii Vânt Presiune Umiditate
    00:00 +14°C° 0 mm 4 m/s 739 mmHg 66%
    01:00 +14°C° 0 mm 4 m/s 741 mmHg 63%
    02:00 +14°C° 0 mm 5 m/s 742 mmHg 60%
    03:00 +14°C° 0 mm 5 m/s 743 mmHg 57%
    04:00 +13°C° 0 mm 5 m/s 744 mmHg 56%
    05:00 +12°C° 0 mm 5 m/s 746 mmHg 55%
    06:00 +11°C° 0 mm 4 m/s 747 mmHg 54%
    07:00 +11°C° 0 mm 4 m/s 748 mmHg 57%
    08:00 +11°C° 0 mm 4 m/s 749 mmHg 59%
    09:00 +11°C° 0 mm 3 m/s 750 mmHg 62%
    10:00 +13°C° 0 mm 4 m/s 750 mmHg 57%
    11:00 +15°C° 0 mm 4 m/s 751 mmHg 52%
    12:00 +18°C° 0 mm 4 m/s 751 mmHg 46%
    13:00 +18°C° 0 mm 4 m/s 751 mmHg 49%
    14:00 +17°C° 0 mm 5 m/s 750 mmHg 51%
    15:00 +19°C° 0 mm 5 m/s 750 mmHg 53%
    16:00 +17°C° 0 mm 5 m/s 750 mmHg 54%
    17:00 +16°C° 0 mm 6 m/s 750 mmHg 55%
    18:00 +15°C° 0 mm 6 m/s 749 mmHg 56%
    19:00 +16°C° 0 mm 7 m/s 749 mmHg 55%
    20:00 +16°C° 0 mm 7 m/s 749 mmHg 55%
    21:00 +17°C° 0 mm 8 m/s 749 mmHg 54%
    22:00 +17°C° 0 mm 7 m/s 749 mmHg 55%
    23:00 +16°C° 0 mm 6 m/s 749 mmHg 55%

    30 Mai, Joi

    Timp Temperatura Precipitaţii Vânt Presiune Umiditate
    00:00 +16°C° 0 mm 5 m/s 749 mmHg 56%
    01:00 +16°C° 0 mm 5 m/s 749 mmHg 56%
    02:00 +16°C° 0 mm 5 m/s 749 mmHg 56%
    03:00 +16°C° 0 mm 6 m/s 749 mmHg 56%
    04:00 +16°C° 0 mm 6 m/s 749 mmHg 56%
    05:00 +17°C° 0 mm 6 m/s 749 mmHg 57%
    06:00 +17°C° 0 mm 6 m/s 749 mmHg 57%
    07:00 +17°C° 0 mm 6 m/s 749 mmHg 57%
    08:00 +17°C° 0 mm 7 m/s 750 mmHg 57%
    09:00 +17°C° 0 mm 7 m/s 750 mmHg 57%
    10:00 +17°C° 0 mm 7 m/s 749 mmHg 58%
    11:00 +18°C° 0 mm 7 m/s 749 mmHg 59%
    12:00 +18°C° 0 mm 7 m/s 749 mmHg 60%
    13:00 +19°C° 0 mm 6 m/s 749 mmHg 59%
    14:00 +19°C° 0 mm 6 m/s 748 mmHg 59%
    15:00 +19°C° 0 mm 6 m/s 747 mmHg 58%
    16:00 +17°C° 0 mm 5 m/s 747 mmHg 60%
    17:00 +17°C° 0 mm 4 m/s 747 mmHg 62%
    18:00 +16°C° 0 mm 3 m/s 747 mmHg 64%
    19:00 +14°C° 0 mm 3 m/s 747 mmHg 68%
    20:00 +14°C° 0 mm 2 m/s 747 mmHg 71%
    21:00 +13°C° 0 mm 1 m/s 747 mmHg 75%
    22:00 +13°C° 0 mm 1 m/s 747 mmHg 75%
    23:00 +13°C° 0 mm 1 m/s 747 mmHg 76%

    31 Mai, Vineri

    Timp Temperatura Precipitaţii Vânt Presiune Umiditate
    00:00 +13°C° 0 mm 1 m/s 747 mmHg 76%
    01:00 +12°C° 0 mm 1 m/s 746 mmHg 78%
    02:00 +12°C° 0 mm 1 m/s 746 mmHg 80%
    03:00 +11°C° 0 mm 1 m/s 746 mmHg 81%
    04:00 +10°C° 0 mm 2 m/s 746 mmHg 81%
    05:00 +10°C° 0 mm 2 m/s 746 mmHg 82%
    06:00 +10°C° 0 mm 3 m/s 746 mmHg 82%
    07:00 +10°C° 0.7 mm 2 m/s 746 mmHg 83%
    08:00 +10°C° 0.7 mm 2 m/s 746 mmHg 84%
    09:00 +10°C° 0.7 mm 2 m/s 746 mmHg 85%
    10:00 +10°C° 0.5 mm 2 m/s 746 mmHg 82%
    11:00 +10°C° 0.5 mm 2 m/s 746 mmHg 79%
    12:00 +12°C° 0.5 mm 2 m/s 746 mmHg 76%
    13:00 +10°C° 0.8 mm 2 m/s 746 mmHg 77%
    14:00 +10°C° 0.8 mm 2 m/s 746 mmHg 78%
    15:00 +10°C° 0.8 mm 2 m/s 746 mmHg 79%
    16:00 +9°C° 1.5 mm 3 m/s 746 mmHg 81%
    17:00 +8°C° 1.5 mm 4 m/s 747 mmHg 83%
    18:00 +7°C° 1.5 mm 4 m/s 748 mmHg 85%
    19:00 +7°C° 0.5 mm 5 m/s 748 mmHg 84%
    20:00 +6°C° 0.5 mm 5 m/s 749 mmHg 83%
    21:00 +6°C° 0.5 mm 5 m/s 750 mmHg 82%
    22:00 +5°C° 0.3 mm 6 m/s 750 mmHg 82%
    23:00 +5°C° 0.3 mm 7 m/s 750 mmHg 81%
    Arată mai mult